Location: Hengforden
(52.3167°N, 6.1333°E)
Time: 16:37:12
(UTC+00:00)

Meteor 1-12 Rocket - Pass Details

Date: 14 June 2025
Orbit: 855 x 924 km, 81.2° (Epoch: 19 July)

Event Time Altitude Azimuth Distance (km) Brightness Sun altitude
Rises 21:17:31 0° 347° (NNW) 3,510 9.0 -8.6°
Reaches altitude 10° 21:19:58 10° 349° (N) 2,577 8.0 -8.8°
Maximum altitude 21:25:51 76° 75° (ENE) 937 4.4 -9.2°
Enters shadow 21:31:30 12° 162° (SSE) 2,489 6.0 -9.6°
